Time,TemperatureF,DewpointF,PressureIn,WindDirection,WindDirectionDegrees,WindSpeedMPH,WindSpeedGustMPH,Humidity,HourlyPrecipIn,Conditions,Clouds,dailyrainin,SoftwareType,DateUTC
2013-11-06 00:09:00,42.4,40.0,30.43,NE,46,0.0,0.0,90,0.00,,,0.00,weatherlink.com 1.10,2013-11-06 05:09:00,
2013-11-06 00:24:00,42.1,39.0,30.43,NE,44,0.0,0.0,90,0.00,,,0.00,weatherlink.com 1.10,2013-11-06 05:24:00,
2013-11-06 00:39:00,41.0,38.0,30.43,NE,44,0.0,0.0,90,0.00,,,0.00,weatherlink.com 1.10,2013-11-06 05:39:00,
2013-11-06 00:54:00,40.3,38.0,30.42,NE,44,0.0,0.0,91,0.00,,,0.00,weatherlink.com 1.10,2013-11-06 05:54:00,
2013-11-06 01:10:00,40.1,38.0,30.42,NE,44,0.0,0.0,92,0.00,,,0.00,weatherlink.com 1.10,2013-11-06 06:10:00,
2013-11-06 01:25:00,39.9,38.0,30.42,NE,44,0.0,0.0,92,0.00,,,0.00,weatherlink.com 1.10,2013-11-06 06:25:00,
2013-11-06 01:40:00,39.5,37.0,30.41,NE,44,0.0,0.0,92,0.00,,,0.00,weatherlink.com 1.10,2013-11-06 06:40:00,
2013-11-06 01:55:00,-999.0,-99.9,30.41,North,-999,-999.0,-999.0,-999,0.00,,,0.00,weatherlink.com 1.10,2013-11-06 06:55:00,
2013-11-06 02:10:00,-999.0,-99.9,30.41,North,-999,-999.0,-999.0,-999,0.00,,,0.00,weatherlink.com 1.10,2013-11-06 07:10:00,
2013-11-06 02:25:00,-999.0,-99.9,30.40,North,-999,-999.0,-999.0,-999,0.00,,,0.00,weatherlink.com 1.10,2013-11-06 07:25:00,
2013-11-06 02:40:00,-999.0,-99.9,30.39,North,-999,-999.0,-999.0,-999,0.00,,,0.00,weatherlink.com 1.10,2013-11-06 07:40:00,
2013-11-06 02:55:00,-999.0,-99.9,30.38,North,-999,-999.0,-999.0,-999,0.00,,,0.00,weatherlink.com 1.10,2013-11-06 07:55:00,
2013-11-06 03:10:00,-999.0,-99.9,30.39,North,-999,-999.0,-999.0,-999,0.00,,,0.00,weatherlink.com 1.10,2013-11-06 08:10:00,
2013-11-06 03:25:00,-999.0,-99.9,30.38,North,-999,-999.0,-999.0,-999,0.00,,,0.00,weatherlink.com 1.10,2013-11-06 08:25:00,
2013-11-06 03:40:00,-999.0,-99.9,30.38,North,-999,-999.0,-999.0,-999,0.00,,,0.00,weatherlink.com 1.10,2013-11-06 08:40:00,
2013-11-06 03:55:00,-999.0,-99.9,30.38,North,-999,-999.0,-999.0,-999,0.00,,,0.00,weatherlink.com 1.10,2013-11-06 08:55:00,
2013-11-06 04:10:00,-999.0,-99.9,30.37,North,-999,-999.0,-999.0,-999,0.00,,,0.00,weatherlink.com 1.10,2013-11-06 09:10:00,
2013-11-06 04:34:00,-999.0,-99.9,30.38,North,-999,-999.0,-999.0,-999,0.00,,,0.00,weatherlink.com 1.10,2013-11-06 09:34:00,
2013-11-06 04:41:00,-999.0,-99.9,30.38,North,-999,-999.0,-999.0,-999,0.00,,,0.00,weatherlink.com 1.10,2013-11-06 09:41:00,
2013-11-06 04:56:00,-999.0,-99.9,30.37,North,-999,-999.0,-999.0,-999,0.00,,,0.00,weatherlink.com 1.10,2013-11-06 09:56:00,
2013-11-06 05:11:00,-999.0,-99.9,30.37,North,-999,-999.0,-999.0,-999,0.00,,,0.00,weatherlink.com 1.10,2013-11-06 10:11:00,
2013-11-06 05:26:00,-999.0,-99.9,30.36,North,-999,-999.0,-999.0,-999,0.00,,,0.00,weatherlink.com 1.10,2013-11-06 10:26:00,
2013-11-06 05:41:00,-999.0,-99.9,30.36,North,-999,-999.0,-999.0,-999,0.00,,,0.00,weatherlink.com 1.10,2013-11-06 10:41:00,
2013-11-06 05:56:00,-999.0,-99.9,30.36,North,-999,-999.0,-999.0,-999,0.00,,,0.00,weatherlink.com 1.10,2013-11-06 10:56:00,
2013-11-06 06:11:00,-999.0,-99.9,30.35,North,-999,-999.0,-999.0,-999,0.00,,,0.00,weatherlink.com 1.10,2013-11-06 11:11:00,
2013-11-06 06:26:00,-999.0,-99.9,30.35,North,-999,-999.0,-999.0,-999,0.00,,,0.00,weatherlink.com 1.10,2013-11-06 11:26:00,
2013-11-06 06:41:00,-999.0,-99.9,30.34,North,-999,-999.0,-999.0,-999,0.00,,,0.00,weatherlink.com 1.10,2013-11-06 11:41:00,
2013-11-06 06:56:00,-999.0,-99.9,30.34,North,-999,-999.0,-999.0,-999,0.00,,,0.00,weatherlink.com 1.10,2013-11-06 11:56:00,
2013-11-06 07:11:00,-999.0,-99.9,30.34,North,-999,-999.0,-999.0,-999,0.00,,,0.00,weatherlink.com 1.10,2013-11-06 12:11:00,
2013-11-06 07:27:00,44.8,43.0,30.34,ENE,60,0.0,0.0,92,0.00,,,0.00,weatherlink.com 1.10,2013-11-06 12:27:00,
2013-11-06 07:42:00,45.6,43.0,30.34,ENE,67,1.0,2.0,91,0.00,,,0.00,weatherlink.com 1.10,2013-11-06 12:42:00,
2013-11-06 07:57:00,46.3,44.0,30.34,ENE,66,0.0,0.0,91,0.00,,,0.00,weatherlink.com 1.10,2013-11-06 12:57:00,
2013-11-06 08:12:00,47.4,45.0,30.34,ENE,66,0.0,0.0,90,0.00,,,0.00,weatherlink.com 1.10,2013-11-06 13:12:00,
2013-11-06 08:27:00,48.2,45.0,30.34,SSW,194,1.0,2.0,87,0.00,,,0.00,weatherlink.com 1.10,2013-11-06 13:27:00,
2013-11-06 08:42:00,48.7,45.0,30.34,SW,217,0.0,2.0,86,0.00,,,0.00,weatherlink.com 1.10,2013-11-06 13:42:00,
2013-11-06 08:57:00,49.2,45.0,30.33,SE,137,0.0,1.0,85,0.00,,,0.00,weatherlink.com 1.10,2013-11-06 13:57:00,
2013-11-06 09:12:00,49.6,45.0,30.32,East,94,0.0,2.0,84,0.00,,,0.00,weatherlink.com 1.10,2013-11-06 14:12:00,
2013-11-06 09:27:00,50.4,45.0,30.32,East,93,0.0,1.0,83,0.00,,,0.00,weatherlink.com 1.10,2013-11-06 14:27:00,
2013-11-06 09:42:00,51.4,46.0,30.31,ESE,120,1.0,2.0,81,0.00,,,0.00,weatherlink.com 1.10,2013-11-06 14:42:00,
2013-11-06 09:57:00,52.2,46.0,30.31,SSE,167,3.0,5.0,79,0.00,,,0.00,weatherlink.com 1.10,2013-11-06 14:57:00,
2013-11-06 10:12:00,52.7,46.0,30.32,SSE,148,3.0,5.0,78,0.00,,,0.00,weatherlink.com 1.10,2013-11-06 15:12:00,
2013-11-06 10:27:00,53.6,47.0,30.31,ESE,108,1.0,4.0,77,0.00,,,0.00,weatherlink.com 1.10,2013-11-06 15:27:00,
2013-11-06 10:42:00,54.1,47.0,30.30,SSE,153,2.0,4.0,77,0.00,,,0.00,weatherlink.com 1.10,2013-11-06 15:42:00,
2013-11-06 10:57:00,54.4,47.0,30.29,SE,136,5.0,6.0,75,0.00,,,0.00,weatherlink.com 1.10,2013-11-06 15:57:00,
2013-11-06 11:12:00,55.1,47.0,30.28,SSE,148,3.0,4.0,74,0.00,,,0.00,weatherlink.com 1.10,2013-11-06 16:12:00,
2013-11-06 11:27:00,55.4,47.0,30.27,East,82,3.0,6.0,73,0.00,,,0.00,weatherlink.com 1.10,2013-11-06 16:27:00,
2013-11-06 11:42:00,55.6,47.0,30.26,East,86,4.0,4.0,72,0.00,,,0.00,weatherlink.com 1.10,2013-11-06 16:42:00,
2013-11-06 11:57:00,56.1,47.0,30.24,SE,139,3.0,6.0,72,0.00,,,0.00,weatherlink.com 1.10,2013-11-06 16:57:00,
2013-11-06 12:12:00,56.8,47.0,30.23,SSE,147,3.0,4.0,69,0.00,,,0.00,weatherlink.com 1.10,2013-11-06 17:12:00,
2013-11-06 12:27:00,57.2,47.0,30.23,East,96,3.0,5.0,69,0.00,,,0.00,weatherlink.com 1.10,2013-11-06 17:27:00,
2013-11-06 12:42:00,57.6,47.0,30.21,SE,133,2.0,5.0,68,0.00,,,0.00,weatherlink.com 1.10,2013-11-06 17:42:00,
2013-11-06 12:57:00,58.6,48.0,30.20,SE,133,3.0,6.0,68,0.00,,,0.00,weatherlink.com 1.10,2013-11-06 17:57:00,
2013-11-06 13:12:00,59.7,49.0,30.20,SE,135,2.0,7.0,67,0.00,,,0.00,weatherlink.com 1.10,2013-11-06 18:12:00,
2013-11-06 13:27:00,58.9,47.0,30.19,East,92,2.0,9.0,66,0.00,,,0.00,weatherlink.com 1.10,2013-11-06 18:27:00,
2013-11-06 13:42:00,59.5,48.0,30.18,ESE,109,1.0,6.0,67,0.00,,,0.00,weatherlink.com 1.10,2013-11-06 18:42:00,
2013-11-06 13:57:00,60.2,48.0,30.17,SSE,150,2.0,5.0,64,0.00,,,0.00,weatherlink.com 1.10,2013-11-06 18:57:00,
2013-11-06 14:13:00,60.6,49.0,30.16,East,98,2.0,5.0,65,0.00,,,0.00,weatherlink.com 1.10,2013-11-06 19:13:00,
2013-11-06 14:28:00,61.3,49.0,30.16,SSE,151,4.0,7.0,64,0.00,,,0.00,weatherlink.com 1.10,2013-11-06 19:28:00,
2013-11-06 14:43:00,61.8,48.0,30.16,SE,128,2.0,7.0,62,0.00,,,0.00,weatherlink.com 1.10,2013-11-06 19:43:00,
2013-11-06 14:58:00,62.1,49.0,30.15,SE,127,7.0,8.0,62,0.00,,,0.00,weatherlink.com 1.10,2013-11-06 19:58:00,
2013-11-06 15:13:00,61.9,49.0,30.15,SE,145,3.0,7.0,62,0.00,,,0.00,weatherlink.com 1.10,2013-11-06 20:13:00,
2013-11-06 15:28:00,61.8,49.0,30.14,SE,131,3.0,4.0,63,0.00,,,0.00,weatherlink.com 1.10,2013-11-06 20:28:00,
2013-11-06 15:43:00,61.5,49.0,30.14,SE,127,1.0,3.0,63,0.00,,,0.00,weatherlink.com 1.10,2013-11-06 20:43:00,
2013-11-06 15:58:00,61.2,49.0,30.13,SE,135,0.0,2.0,64,0.00,,,0.00,weatherlink.com 1.10,2013-11-06 20:58:00,
2013-11-06 16:13:00,60.8,49.0,30.13,SE,135,0.0,0.0,66,0.00,,,0.00,weatherlink.com 1.10,2013-11-06 21:13:00,
2013-11-06 16:28:00,60.3,50.0,30.12,SE,136,0.0,0.0,68,0.00,,,0.00,weatherlink.com 1.10,2013-11-06 21:28:00,
2013-11-06 16:43:00,59.8,50.0,30.11,SE,135,0.0,0.0,70,0.00,,,0.00,weatherlink.com 1.10,2013-11-06 21:43:00,
2013-11-06 16:58:00,59.0,50.0,30.11,ESE,110,0.0,0.0,73,0.00,,,0.00,weatherlink.com 1.10,2013-11-06 21:58:00,
2013-11-06 17:13:00,58.4,50.0,30.10,ESE,110,0.0,0.0,74,0.00,,,0.00,weatherlink.com 1.10,2013-11-06 22:13:00,
2013-11-06 17:28:00,57.8,50.0,30.10,ESE,110,0.0,0.0,76,0.00,,,0.00,weatherlink.com 1.10,2013-11-06 22:28:00,
2013-11-06 17:43:00,57.0,50.0,30.09,ESE,110,0.0,0.0,77,0.00,,,0.00,weatherlink.com 1.10,2013-11-06 22:43:00,
2013-11-06 17:58:00,58.5,50.0,30.09,ESE,123,6.0,9.0,74,0.00,,,0.00,weatherlink.com 1.10,2013-11-06 22:58:00,
2013-11-06 18:13:00,59.5,50.0,30.09,ESE,110,5.0,11.0,72,0.00,,,0.00,weatherlink.com 1.10,2013-11-06 23:13:00,
2013-11-06 18:28:00,59.2,50.0,30.09,SSE,150,7.0,7.0,72,0.00,,,0.00,weatherlink.com 1.10,2013-11-06 23:28:00,
2013-11-06 18:43:00,58.4,50.0,30.09,SE,143,3.0,7.0,73,0.00,,,0.00,weatherlink.com 1.10,2013-11-06 23:43:00,
2013-11-06 18:58:00,57.4,50.0,30.09,SSE,147,3.0,9.0,75,0.00,,,0.00,weatherlink.com 1.10,2013-11-06 23:58:00,
2013-11-06 19:13:00,56.7,50.0,30.09,ESE,105,3.0,9.0,77,0.00,,,0.00,weatherlink.com 1.10,2013-11-07 00:13:00,
2013-11-06 19:28:00,56.1,49.0,30.09,ESE,110,1.0,4.0,78,0.00,,,0.00,weatherlink.com 1.10,2013-11-07 00:28:00,
2013-11-06 19:43:00,55.8,50.0,30.08,ESE,113,2.0,5.0,80,0.00,,,0.00,weatherlink.com 1.10,2013-11-07 00:43:00,
2013-11-06 19:58:00,55.3,49.0,30.08,SE,133,1.0,4.0,80,0.00,,,0.00,weatherlink.com 1.10,2013-11-07 00:58:00,
2013-11-06 20:13:00,54.6,49.0,30.07,SE,129,1.0,3.0,82,0.00,,,0.00,weatherlink.com 1.10,2013-11-07 01:13:00,
2013-11-06 20:29:00,53.7,49.0,30.07,South,174,0.0,0.0,83,0.00,,,0.00,weatherlink.com 1.10,2013-11-07 01:29:00,
2013-11-06 20:44:00,52.5,48.0,30.07,South,174,0.0,0.0,84,0.00,,,0.00,weatherlink.com 1.10,2013-11-07 01:44:00,
2013-11-06 20:59:00,50.9,47.0,30.06,South,174,0.0,0.0,86,0.00,,,0.00,weatherlink.com 1.10,2013-11-07 01:59:00,
2013-11-06 21:14:00,50.0,47.0,30.06,South,174,0.0,1.0,88,0.00,,,0.00,weatherlink.com 1.10,2013-11-07 02:14:00,
2013-11-06 21:29:00,49.4,46.0,30.05,SSW,202,0.0,0.0,89,0.00,,,0.00,weatherlink.com 1.10,2013-11-07 02:29:00,
2013-11-06 21:44:00,48.5,46.0,30.05,SSW,201,0.0,0.0,90,0.00,,,0.00,weatherlink.com 1.10,2013-11-07 02:44:00,
2013-11-06 21:59:00,47.8,45.0,30.04,SW,231,1.0,1.0,91,0.00,,,0.00,weatherlink.com 1.10,2013-11-07 02:59:00,
2013-11-06 22:14:00,47.7,45.0,30.03,West,270,0.0,0.0,91,0.00,,,0.00,weatherlink.com 1.10,2013-11-07 03:14:00,
2013-11-06 22:29:00,47.3,45.0,30.03,West,270,0.0,1.0,92,0.00,,,0.00,weatherlink.com 1.10,2013-11-07 03:29:00,
2013-11-06 22:44:00,46.8,45.0,30.02,West,270,0.0,0.0,92,0.00,,,0.00,weatherlink.com 1.10,2013-11-07 03:44:00,
2013-11-06 22:59:00,46.7,45.0,30.02,West,270,0.0,0.0,92,0.00,,,0.00,weatherlink.com 1.10,2013-11-07 03:59:00,
2013-11-06 23:14:00,47.3,46.0,30.01,West,270,0.0,0.0,94,0.00,,,0.00,weatherlink.com 1.10,2013-11-07 04:14:00,
2013-11-06 23:29:00,47.4,46.0,30.01,West,270,0.0,0.0,93,0.00,,,0.00,weatherlink.com 1.10,2013-11-07 04:29:00,
2013-11-06 23:44:00,46.5,45.0,30.00,West,270,0.0,0.0,93,0.00,,,0.00,weatherlink.com 1.10,2013-11-07 04:44:00,
2013-11-06 23:59:00,46.5,45.0,30.00,West,270,0.0,0.0,94,0.00,,,0.00,weatherlink.com 1.10,2013-11-07 04:59:00,